When you browse on this site, cookies collect data to enhance your experience and personalize the content and advertising you see.
Visit our Privacy Policy to learn more. By continuing to use the site, you agree to this use of cookies and data.
  • In Austria
  • List of Countries
  • For 7 days
  • Water Temperature
  • Weather Map
  • News
  • Weather Widgets
  • user-avatar
    Login

    Hourly Weather Edmundston

    Today, 2 June, Tuesday

    Time Temperature Precipitation Wind Pressure Humidity
    00:00 +8°C° 0 mm 2 mps 699 mmHg 77%
    01:00 +8°C° 0 mm 2 mps 699 mmHg 77%
    02:00 +8°C° 0 mm 2 mps 699 mmHg 75%
    03:00 +7°C° 0 mm 2 mps 700 mmHg 73%
    04:00 +7°C° 0 mm 2 mps 700 mmHg 71%
    05:00 +9°C° 0 mm 3 mps 700 mmHg 69%
    06:00 +11°C° 0 mm 3 mps 700 mmHg 67%
    07:00 +12°C° 0 mm 3 mps 700 mmHg 64%
    08:00 +14°C° 0 mm 3 mps 700 mmHg 59%
    09:00 +15°C° 0 mm 4 mps 700 mmHg 53%
    10:00 +18°C° 0 mm 4 mps 700 mmHg 48%
    11:00 +19°C° 0 mm 4 mps 699 mmHg 48%
    12:00 +19°C° 0 mm 4 mps 699 mmHg 47%
    13:00 +20°C° 0 mm 5 mps 698 mmHg 47%
    14:00 +20°C° 0 mm 5 mps 697 mmHg 49%
    15:00 +20°C° 0 mm 5 mps 697 mmHg 51%
    16:00 +20°C° 0 mm 5 mps 696 mmHg 54%
    17:00 +19°C° 0 mm 5 mps 695 mmHg 59%
    18:00 +17°C° 0 mm 4 mps 694 mmHg 64%
    19:00 +15°C° 0 mm 4 mps 693 mmHg 70%
    20:00 +14°C° 0.6 mm 4 mps 693 mmHg 75%
    21:00 +13°C° 0.6 mm 4 mps 693 mmHg 80%
    22:00 +12°C° 0.6 mm 4 mps 693 mmHg 85%
    23:00 +10°C° 3.3 mm 5 mps 693 mmHg 87%

    Tomorrow, 3 June, Wednesday

    Time Temperature Precipitation Wind Pressure Humidity
    00:00 +10°C° 3.3 mm 6 mps 693 mmHg 90%
    01:00 +9°C° 3.3 mm 7 mps 693 mmHg 92%
    02:00 +7°C° 0.4 mm 8 mps 694 mmHg 91%
    03:00 +6°C° 0.4 mm 9 mps 694 mmHg 89%
    04:00 +6°C° 0.4 mm 10 mps 694 mmHg 87%
    05:00 +6°C° 0 mm 10 mps 694 mmHg 84%
    06:00 +7°C° 0 mm 10 mps 695 mmHg 81%
    07:00 +7°C° 0 mm 10 mps 695 mmHg 77%
    08:00 +8°C° 0 mm 10 mps 695 mmHg 72%
    09:00 +10°C° 0 mm 9 mps 695 mmHg 67%
    10:00 +11°C° 0 mm 9 mps 695 mmHg 62%
    11:00 +12°C° 0.2 mm 9 mps 696 mmHg 63%
    12:00 +12°C° 0.2 mm 9 mps 696 mmHg 63%
    13:00 +12°C° 0.2 mm 9 mps 696 mmHg 63%
    14:00 +12°C° 0.3 mm 9 mps 696 mmHg 65%
    15:00 +12°C° 0.3 mm 9 mps 696 mmHg 67%
    16:00 +12°C° 0.3 mm 9 mps 696 mmHg 69%
    17:00 +11°C° 0.1 mm 8 mps 696 mmHg 72%
    18:00 +10°C° 0.1 mm 8 mps 696 mmHg 75%
    19:00 +9°C° 0.1 mm 7 mps 696 mmHg 79%
    20:00 +8°C° 0.3 mm 7 mps 696 mmHg 82%
    21:00 +8°C° 0.3 mm 7 mps 696 mmHg 85%
    22:00 +8°C° 0.3 mm 7 mps 696 mmHg 88%
    23:00 +8°C° 0.3 mm 7 mps 696 mmHg 88%

    Day after tomorrow, 4 June, Thursday

    Time Temperature Precipitation Wind Pressure Humidity
    00:00 +6°C° 0.3 mm 7 mps 696 mmHg 88%
    01:00 +7°C° 0.3 mm 6 mps 697 mmHg 89%
    02:00 +7°C° 0.1 mm 6 mps 697 mmHg 89%
    03:00 +7°C° 0.1 mm 5 mps 697 mmHg 90%
    04:00 +7°C° 0.1 mm 5 mps 697 mmHg 90%
    05:00 +7°C° 0.2 mm 5 mps 697 mmHg 89%
    06:00 +8°C° 0.2 mm 6 mps 697 mmHg 88%
    07:00 +8°C° 0.2 mm 6 mps 698 mmHg 87%
    08:00 +8°C° 0.7 mm 6 mps 698 mmHg 87%
    09:00 +8°C° 0.7 mm 6 mps 698 mmHg 87%
    10:00 +7°C° 0.7 mm 6 mps 698 mmHg 87%
    11:00 +7°C° 0.4 mm 6 mps 698 mmHg 87%
    12:00 +7°C° 0.4 mm 6 mps 698 mmHg 87%
    13:00 +7°C° 0.4 mm 6 mps 698 mmHg 87%
    14:00 +7°C° 0 mm 5 mps 698 mmHg 87%
    15:00 +8°C° 0 mm 4 mps 698 mmHg 87%
    16:00 +9°C° 0 mm 3 mps 699 mmHg 87%
    17:00 +9°C° 0 mm 2 mps 699 mmHg 88%
    18:00 +9°C° 0 mm 2 mps 699 mmHg 90%
    19:00 +10°C° 0 mm 1 mps 699 mmHg 91%
    20:00 +9°C° 0 mm 1 mps 699 mmHg 92%
    21:00 +8°C° 0 mm 1 mps 699 mmHg 93%
    22:00 +7°C° 0 mm 1 mps 700 mmHg 95%
    23:00 +7°C° 0 mm 1 mps 700 mmHg 95%

    5 June, Friday

    Time Temperature Precipitation Wind Pressure Humidity
    00:00 +7°C° 0 mm 1 mps 700 mmHg 95%
    01:00 +7°C° 0 mm 1 mps 700 mmHg 95%
    02:00 +7°C° 0 mm 1 mps 700 mmHg 95%
    03:00 +7°C° 0 mm 1 mps 700 mmHg 95%
    04:00 +6°C° 0 mm 0 mps 700 mmHg 95%
    05:00 +8°C° 0 mm 1 mps 700 mmHg 90%
    06:00 +10°C° 0 mm 1 mps 700 mmHg 86%
    07:00 +12°C° 0 mm 1 mps 701 mmHg 81%
    08:00 +13°C° 0.2 mm 2 mps 700 mmHg 77%
    09:00 +13°C° 0.2 mm 3 mps 700 mmHg 73%
    10:00 +14°C° 0.2 mm 3 mps 700 mmHg 69%
    11:00 +15°C° 0.4 mm 4 mps 700 mmHg 68%
    12:00 +17°C° 0.4 mm 4 mps 700 mmHg 66%
    13:00 +16°C° 0.4 mm 5 mps 699 mmHg 65%
    14:00 +16°C° 0.3 mm 5 mps 699 mmHg 66%
    15:00 +16°C° 0.3 mm 6 mps 699 mmHg 67%
    16:00 +16°C° 0.3 mm 6 mps 698 mmHg 67%
    17:00 +15°C° 0.1 mm 5 mps 698 mmHg 71%
    18:00 +14°C° 0.1 mm 5 mps 698 mmHg 75%
    19:00 +13°C° 0.1 mm 5 mps 697 mmHg 79%
    20:00 +12°C° 0 mm 5 mps 697 mmHg 79%
    21:00 +12°C° 0 mm 5 mps 697 mmHg 79%
    22:00 +10°C° 0 mm 6 mps 697 mmHg 79%
    23:00 +10°C° 0 mm 6 mps 697 mmHg 78%

    6 June, Saturday

    Time Temperature Precipitation Wind Pressure Humidity
    00:00 +10°C° 0 mm 6 mps 696 mmHg 77%
    01:00 +10°C° 0 mm 7 mps 696 mmHg 76%
    02:00 +10°C° 0.4 mm 6 mps 696 mmHg 80%
    03:00 +9°C° 0.4 mm 6 mps 695 mmHg 84%
    04:00 +9°C° 0.4 mm 6 mps 695 mmHg 88%
    05:00 +9°C° 0.8 mm 7 mps 694 mmHg 86%
    06:00 +9°C° 0.8 mm 7 mps 694 mmHg 85%
    07:00 +9°C° 0.8 mm 8 mps 694 mmHg 84%
    08:00 +9°C° 2.5 mm 8 mps 693 mmHg 87%
    09:00 +9°C° 2.5 mm 8 mps 693 mmHg 89%
    10:00 +9°C° 2.5 mm 8 mps 692 mmHg 91%
    11:00 +9°C° 4.7 mm 8 mps 692 mmHg 92%
    12:00 +9°C° 4.7 mm 8 mps 691 mmHg 93%
    13:00 +9°C° 4.7 mm 8 mps 691 mmHg 94%
    14:00 +9°C° 2.2 mm 8 mps 691 mmHg 94%
    15:00 +10°C° 2.2 mm 8 mps 690 mmHg 94%
    16:00 +10°C° 2.2 mm 8 mps 690 mmHg 94%
    17:00 +10°C° 1.2 mm 8 mps 690 mmHg 94%
    18:00 +10°C° 1.2 mm 7 mps 690 mmHg 94%
    19:00 +10°C° 1.2 mm 7 mps 690 mmHg 94%
    20:00 +10°C° 0.2 mm 6 mps 690 mmHg 95%
    21:00 +10°C° 0.2 mm 5 mps 690 mmHg 95%
    22:00 +10°C° 0.2 mm 5 mps 691 mmHg 95%
    23:00 +11°C° 0.5 mm 4 mps 691 mmHg 96%

    7 June, Sunday

    Time Temperature Precipitation Wind Pressure Humidity
    00:00 +11°C° 0.5 mm 4 mps 691 mmHg 96%
    01:00 +10°C° 0.5 mm 3 mps 691 mmHg 97%
    02:00 +10°C° 0.3 mm 3 mps 691 mmHg 97%
    03:00 +10°C° 0.3 mm 3 mps 691 mmHg 97%
    04:00 +10°C° 0.3 mm 3 mps 691 mmHg 97%
    05:00 +10°C° 0.2 mm 2 mps 692 mmHg 97%
    06:00 +10°C° 0.2 mm 2 mps 692 mmHg 97%
    07:00 +10°C° 0.2 mm 2 mps 692 mmHg 97%
    08:00 +10°C° 0.1 mm 2 mps 692 mmHg 97%
    09:00 +12°C° 0.1 mm 2 mps 693 mmHg 96%
    10:00 +12°C° 0.1 mm 2 mps 693 mmHg 96%
    11:00 +11°C° 0.1 mm 3 mps 693 mmHg 96%
    12:00 +11°C° 0.1 mm 3 mps 693 mmHg 96%
    13:00 +11°C° 0.1 mm 3 mps 693 mmHg 96%
    14:00 +10°C° 0.6 mm 3 mps 693 mmHg 96%
    15:00 +10°C° 0.6 mm 4 mps 693 mmHg 96%
    16:00 +10°C° 0.6 mm 4 mps 693 mmHg 97%
    17:00 +8°C° 0.4 mm 4 mps 694 mmHg 97%
    18:00 +8°C° 0.4 mm 4 mps 694 mmHg 96%
    19:00 +8°C° 0.4 mm 4 mps 694 mmHg 96%
    20:00 +8°C° 0.2 mm 4 mps 694 mmHg 96%
    21:00 +8°C° 0.2 mm 4 mps 694 mmHg 96%
    22:00 +8°C° 0.2 mm 4 mps 695 mmHg 97%
    23:00 +7°C° 0.1 mm 4 mps 695 mmHg 97%
    Show more